• In Deutschland
  • Länderverzeichnis
  • Für 7 Tage
  • Wassertemperatur
  • Satellitenkarten
  • Wetterkarte
  • Widgets
  • user-avatar
    Anmelden

    Stündliche Wetter Uelzen

    Heute, 19 Februar, Montag

    Zeit Temperatur Niederschläge Wind Luftdruck Luftfeuchtigkeit
    00:00 -1°C° 0 mm 2 m/S 764 mmHg 85%
    01:00 -2°C° 0 mm 2 m/S 764 mmHg 87%
    02:00 -2°C° 0 mm 2 m/S 763 mmHg 86%
    03:00 -1°C° 0 mm 2 m/S 763 mmHg 85%
    04:00 -1°C° 0 mm 2 m/S 763 mmHg 84%
    05:00 -1°C° 0 mm 2 m/S 762 mmHg 83%
    06:00 -1°C° 0 mm 2 m/S 762 mmHg 82%
    07:00 +1°C° 0 mm 1 m/S 762 mmHg 81%
    08:00 +1°C° 0 mm 1 m/S 762 mmHg 77%
    09:00 +2°C° 0 mm 1 m/S 762 mmHg 73%
    10:00 +3°C° 0 mm 1 m/S 761 mmHg 69%
    11:00 +4°C° 0 mm 1 m/S 761 mmHg 64%
    12:00 +5°C° 0 mm 1 m/S 761 mmHg 60%
    13:00 +6°C° 0 mm 1 m/S 761 mmHg 56%
    14:00 +6°C° 0 mm 1 m/S 761 mmHg 57%
    15:00 +6°C° 0 mm 1 m/S 760 mmHg 59%
    16:00 +6°C° 0 mm 1 m/S 760 mmHg 60%
    17:00 +4°C° 0 mm 1 m/S 760 mmHg 64%
    18:00 +3°C° 0 mm 1 m/S 760 mmHg 68%
    19:00 +2°C° 0 mm 1 m/S 760 mmHg 72%
    20:00 +2°C° 0 mm 1 m/S 760 mmHg 74%
    21:00 +1°C° 0 mm 1 m/S 760 mmHg 75%
    22:00 +1°C° 0 mm 1 m/S 760 mmHg 77%
    23:00 +1°C° 0 mm 1 m/S 760 mmHg 79%

    Morgen, 20 Februar, Dienstag

    Zeit Temperatur Niederschläge Wind Luftdruck Luftfeuchtigkeit
    00:00 0°C° 0 mm 1 m/S 760 mmHg 80%
    01:00 0°C° 0 mm 1 m/S 760 mmHg 82%
    02:00 0°C° 0 mm 1 m/S 760 mmHg 83%
    03:00 0°C° 0 mm 1 m/S 760 mmHg 84%
    04:00 -3°C° 0 mm 2 m/S 760 mmHg 84%
    05:00 -3°C° 0 mm 2 m/S 760 mmHg 84%
    06:00 -3°C° 0 mm 2 m/S 760 mmHg 84%
    07:00 -3°C° 0 mm 2 m/S 760 mmHg 84%
    08:00 -2°C° 0 mm 2 m/S 760 mmHg 78%
    09:00 -1°C° 0 mm 2 m/S 761 mmHg 72%
    10:00 +1°C° 0 mm 2 m/S 761 mmHg 65%
    11:00 +1°C° 0 mm 3 m/S 761 mmHg 61%
    12:00 +2°C° 0 mm 3 m/S 761 mmHg 56%
    13:00 +3°C° 0 mm 3 m/S 761 mmHg 52%
    14:00 +3°C° 0 mm 3 m/S 761 mmHg 53%
    15:00 +3°C° 0 mm 3 m/S 761 mmHg 54%
    16:00 +3°C° 0 mm 3 m/S 761 mmHg 56%
    17:00 +1°C° 0 mm 3 m/S 762 mmHg 63%
    18:00 0°C° 0 mm 3 m/S 762 mmHg 70%
    19:00 -2°C° 0 mm 2 m/S 763 mmHg 77%
    20:00 -2°C° 0 mm 2 m/S 763 mmHg 78%
    21:00 -2°C° 0 mm 2 m/S 763 mmHg 80%
    22:00 -3°C° 0 mm 2 m/S 764 mmHg 82%
    23:00 -3°C° 0 mm 2 m/S 764 mmHg 83%

    übermorgen, 21 Februar, Mittwoch

    Zeit Temperatur Niederschläge Wind Luftdruck Luftfeuchtigkeit
    00:00 -3°C° 0 mm 2 m/S 765 mmHg 84%
    01:00 -3°C° 0 mm 2 m/S 765 mmHg 84%
    02:00 -3°C° 0 mm 2 m/S 765 mmHg 84%
    03:00 -3°C° 0 mm 2 m/S 765 mmHg 84%
    04:00 -2°C° 0 mm 1 m/S 765 mmHg 83%
    05:00 -1°C° 0 mm 1 m/S 765 mmHg 83%
    06:00 -1°C° 0 mm 1 m/S 765 mmHg 83%
    07:00 -1°C° 0 mm 1 m/S 765 mmHg 82%
    08:00 0°C° 0 mm 1 m/S 765 mmHg 76%
    09:00 -1°C° 0 mm 2 m/S 766 mmHg 70%
    10:00 +1°C° 0 mm 2 m/S 766 mmHg 64%
    11:00 +2°C° 0 mm 2 m/S 765 mmHg 60%
    12:00 +3°C° 0 mm 2 m/S 765 mmHg 55%
    13:00 +4°C° 0 mm 2 m/S 765 mmHg 50%
    14:00 +4°C° 0 mm 2 m/S 765 mmHg 52%
    15:00 +3°C° 0 mm 2 m/S 765 mmHg 53%
    16:00 +3°C° 0 mm 2 m/S 764 mmHg 55%
    17:00 +2°C° 0 mm 2 m/S 764 mmHg 61%
    18:00 +1°C° 0 mm 2 m/S 764 mmHg 67%
    19:00 -1°C° 0 mm 2 m/S 765 mmHg 73%
    20:00 -2°C° 0 mm 2 m/S 765 mmHg 76%
    21:00 -2°C° 0 mm 2 m/S 765 mmHg 78%
    22:00 -3°C° 0 mm 2 m/S 765 mmHg 81%
    23:00 -3°C° 0 mm 2 m/S 765 mmHg 82%

    22 Februar, Donnerstag

    Zeit Temperatur Niederschläge Wind Luftdruck Luftfeuchtigkeit
    00:00 -3°C° 0 mm 2 m/S 765 mmHg 82%
    01:00 -3°C° 0 mm 2 m/S 765 mmHg 83%
    02:00 -3°C° 0 mm 2 m/S 765 mmHg 82%
    03:00 -3°C° 0 mm 2 m/S 765 mmHg 82%
    04:00 -4°C° 0 mm 2 m/S 765 mmHg 81%
    05:00 -4°C° 0 mm 2 m/S 765 mmHg 80%
    06:00 -4°C° 0 mm 2 m/S 765 mmHg 80%
    07:00 -4°C° 0 mm 2 m/S 766 mmHg 79%
    08:00 -3°C° 0 mm 2 m/S 766 mmHg 72%
    09:00 -2°C° 0 mm 2 m/S 766 mmHg 65%
    10:00 -1°C° 0 mm 3 m/S 766 mmHg 58%
    11:00 0°C° 0 mm 3 m/S 766 mmHg 56%
    12:00 +1°C° 0 mm 3 m/S 766 mmHg 55%
    13:00 +1°C° 0 mm 4 m/S 765 mmHg 54%
    14:00 +1°C° 0 mm 4 m/S 765 mmHg 57%
    15:00 +1°C° 0 mm 4 m/S 765 mmHg 59%
    16:00 0°C° 0 mm 4 m/S 765 mmHg 62%
    17:00 -1°C° 0 mm 4 m/S 765 mmHg 66%
    18:00 -1°C° 0 mm 4 m/S 765 mmHg 71%
    19:00 -1°C° 0 mm 3 m/S 765 mmHg 76%
    20:00 -2°C° 0 mm 3 m/S 765 mmHg 77%
    21:00 -2°C° 0 mm 3 m/S 765 mmHg 78%
    22:00 -2°C° 0 mm 3 m/S 766 mmHg 79%
    23:00 -4°C° 0 mm 3 m/S 766 mmHg 79%

    23 Februar, Freitag

    Zeit Temperatur Niederschläge Wind Luftdruck Luftfeuchtigkeit
    00:00 -4°C° 0 mm 3 m/S 766 mmHg 79%
    01:00 -4°C° 0 mm 3 m/S 766 mmHg 79%
    02:00 -4°C° 0 mm 3 m/S 766 mmHg 78%
    03:00 -5°C° 0 mm 4 m/S 765 mmHg 77%
    04:00 -5°C° 0 mm 4 m/S 765 mmHg 76%
    05:00 -5°C° 0 mm 4 m/S 766 mmHg 75%
    06:00 -5°C° 0 mm 4 m/S 766 mmHg 74%
    07:00 -5°C° 0 mm 4 m/S 766 mmHg 73%
    08:00 -4°C° 0 mm 4 m/S 766 mmHg 68%
    09:00 -5°C° 0 mm 5 m/S 766 mmHg 63%
    10:00 -4°C° 0 mm 5 m/S 767 mmHg 58%
    11:00 -2°C° 0 mm 5 m/S 767 mmHg 54%
    12:00 -2°C° 0 mm 5 m/S 767 mmHg 50%
    13:00 -1°C° 0 mm 5 m/S 767 mmHg 46%
    14:00 -1°C° 0 mm 5 m/S 767 mmHg 46%
    15:00 -1°C° 0 mm 5 m/S 767 mmHg 45%
    16:00 -1°C° 0 mm 5 m/S 767 mmHg 44%
    17:00 -2°C° 0 mm 4 m/S 767 mmHg 49%
    18:00 -3°C° 0 mm 4 m/S 767 mmHg 53%
    19:00 -4°C° 0 mm 4 m/S 768 mmHg 57%
    20:00 -4°C° 0 mm 4 m/S 768 mmHg 59%
    21:00 -5°C° 0 mm 4 m/S 769 mmHg 60%
    22:00 -5°C° 0 mm 4 m/S 769 mmHg 61%
    23:00 -5°C° 0 mm 4 m/S 769 mmHg 62%

    24 Februar, Samstag

    Zeit Temperatur Niederschläge Wind Luftdruck Luftfeuchtigkeit
    00:00 -5°C° 0 mm 3 m/S 769 mmHg 62%
    01:00 -5°C° 0 mm 3 m/S 769 mmHg 62%
    02:00 -5°C° 0 mm 3 m/S 769 mmHg 63%
    03:00 -5°C° 0 mm 3 m/S 770 mmHg 64%
    04:00 -6°C° 0 mm 3 m/S 770 mmHg 64%
    05:00 -6°C° 0 mm 3 m/S 770 mmHg 66%
    06:00 -5°C° 0 mm 2 m/S 770 mmHg 67%
    07:00 -5°C° 0 mm 2 m/S 771 mmHg 68%
    08:00 -5°C° 0 mm 3 m/S 771 mmHg 63%
    09:00 -4°C° 0 mm 3 m/S 771 mmHg 58%
    10:00 -2°C° 0 mm 3 m/S 772 mmHg 53%
    11:00 -1°C° 0 mm 3 m/S 771 mmHg 50%
    12:00 -1°C° 0 mm 3 m/S 771 mmHg 47%
    13:00 0°C° 0 mm 3 m/S 771 mmHg 44%
    14:00 0°C° 0 mm 3 m/S 771 mmHg 45%
    15:00 -2°C° 0 mm 4 m/S 771 mmHg 46%
    16:00 -2°C° 0 mm 4 m/S 770 mmHg 47%
    17:00 -3°C° 0 mm 4 m/S 770 mmHg 51%
    18:00 -3°C° 0 mm 4 m/S 770 mmHg 56%
    19:00 -4°C° 0 mm 3 m/S 770 mmHg 60%
    20:00 -5°C° 0 mm 4 m/S 770 mmHg 59%
    21:00 -5°C° 0 mm 4 m/S 771 mmHg 59%
    22:00 -5°C° 0 mm 4 m/S 771 mmHg 58%
    23:00 -7°C° 0 mm 4 m/S 771 mmHg 57%
    Mehr zeigen